Location: ??????
(42.0089°N, 44.3281°E)
Time: 19:48:56
(UTC+00:00)

Cosmos 1932 - Pass Details

Date: 24 October 2021
Orbit: 943 x 987 km, 65.0° (Epoch: 02 December)

Event Time Altitude Azimuth Distance (km) Brightness Sun altitude
Rises 15:55:55 0° 328° (NNW) 3,618 8.0 -20.8°
Reaches altitude 10° 15:58:29 10° 331° (NNW) 2,673 7.2 -21.3°
Maximum altitude 16:04:42 68° 55° (NE) 1,019 4.4 -22.4°
Enters shadow 16:06:49 42° 123° (ESE) 1,325 4.8 -22.8°
